Tracking 19219 objects as of 19-Jul-2018
HD Live streaming from Space Station
objects crossing your sky now

FENGYUN 1C DEB

Track FENGYUN 1C DEB now!
10-day predictions


NORAD ID: 36680
Int'l Code: 1999-025DZA
Perigee: 708.9 km
Apogee: 1,002.0 km
Inclination: 98.7 °
Period: 101.9 minutes
Semi major axis: 7226 km
RCS: 0.0016 m2 (small)
Launch date: May 10, 1999
Source: People's Republic of China (PRC)
Launch site: Taiyaun Space Center, China (TSC)

Note: This is SATELLITE DEBRIS
aabbcc
Your satellite tracking list
Your tracking list is empty




NASA's NSSDC Master Catalog

Two Line Element Set (TLE):
1 36680U 99025DZA 18199.11467472  .00000023  00000-0  28661-4 0  9990
2 36680  98.7406 251.0595 0202825  83.9463 333.8525 14.13240575457702
Source of the keplerian elements: AFSPC